Location: Bronnegerveen
(52.9548°N, 6.8388°E)
Time: 02:43:08
(UTC+00:00)

USA 234 - Pass Details

Date: 15 June 2025
Orbit: 1097 x 1111 km, 123.0° (Epoch: 19 June)

Event Time Altitude Azimuth Distance (km) Brightness Sun altitude
Rises 00:35:52 0° 60° (ENE) 3,919 6.9 -12.5°
Reaches altitude 10° 00:38:24 10° 64° (ENE) 2,960 6.1 -12.4°
Maximum altitude 00:44:52 63° 145° (SE) 1,221 3.3 -12.2°
Enters shadow 00:51:09 11° 226° (SW) 2,887 4.9 -11.9°
